Regional Weather Roundup
Issued by NWS Sterling, VA

Home | Current Version | Previous Version | Graphics & Text | Print | Product List | Glossary On
Versions: 1 2 3 4 5 6 7 8 9 10 11 12 13 14 15 16 17 18 19 20 21 22 23 24 25 26 27 28 29 30 31 32 33 34 35 36 37 38 39 40 41 42 43 44 45 46 47 48 49 50
000
ASUS41 KLWX 211310
RWRLWX

REGIONAL WEATHER ROUNDUP
NATIONAL WEATHER SERVICE BALTIMORE MD/WASHINGTON DC
800 AM EST TUE FEB 21 2017

Note: "FAIR" indicates few or no clouds below 12,000 feet
with no significant weather and/or obstructions to visibility.
 TC=TEMPERATURE CELSIUS

 * =Non NWS site. Station does not report precipitation (e.g. rain,
    snow, etc.), thunder, or fog.

DCZ001-MDZ009-015-VAZ040>042-051-053>054-211400-
WASHINGTON METRO

CITY           SKY/WX    TMP DP  RH WIND       PRES   REMARKS
WASHINGTON NAT CLOUDY    42  27  55 E7        30.35S
DULLES         CLOUDY    40  25  55 SE5       30.34S
ANDREWS AFB    MOSUNNY   40  26  57 E6        30.34R
FT BELVOIR     CLOUDY    41  26  54 CALM      30.35S
QUANTICO       CLOUDY    42  30  62 E6        30.37R
COLLEGE PARK*  CLOUDY    39  23  52 E5        30.35F
LEESBURG*      CLOUDY    41  28  60 MISG      30.35R
MANASSAS*      CLOUDY    40  30  67 SE6       30.35S
GAITHERSBURG*  CLOUDY    37  18  44 E8        30.37F

$$

MDZ006>007-011-014-211400-
BALTIMORE METRO

CITY           SKY/WX    TMP DP  RH WIND       PRES   REMARKS
BWI AIRPORT    CLOUDY    40  22  48 E8        30.36R
MD SCIENCE CTR   N/A     41  19  41 MISG      30.38R
MARTIN STATE   MOSUNNY   39  23  52 CALM      30.38S
ANNAPOLIS      CLOUDY    41  25  53 CALM      30.37R
FORT MEADE*    CLOUDY    36  23  60 E6        30.39R

$$

MDZ012-015-019>023-211400-
MARYLAND EASTERN SHORE

CITY           SKY/WX    TMP DP  RH WIND       PRES   REMARKS
OCEAN CITY     CLOUDY    44  37  76 NE5       30.35S
SALISBURY      CLOUDY    35  33  92 CALM      30.34F
BAY BRIDGE AP* MOSUNNY   39  25  56 E3        30.37S
EASTON*        PTSUNNY   36  25  64 NE5       30.39S

$$

MDZ017>025-211400-
SOUTHERN MARYLAND

CITY           SKY/WX    TMP DP  RH WIND       PRES   REMARKS
PATUXENT RIVER CLOUDY    40  34  79 CALM      30.36R
ST INIGOES     CLOUDY    42  33  70 NE3       30.35R
LEONARDTOWN*   CLOUDY    41  32  70 CALM      30.37R

$$

MDZ003>005-211400-
NORTH CENTRAL MARYLAND

CITY           SKY/WX    TMP DP  RH WIND       PRES   REMARKS
FREDERICK*     SUNNY    N/A N/A N/A CALM      30.36F
HAGERSTOWN APT PTSUNNY   40  18  41 CALM      30.30S
WESTMINSTER*   CLOUDY    39  19  45 SE5       30.32F

$$

MDZ501>502-211400-
WESTERN MARYLAND

CITY           SKY/WX    TMP DP  RH WIND       PRES   REMARKS
OAKLAND*       PTCLDY    36  28  75 SE20      30.15S WCI  25
CUMBERLAND*    PTSUNNY   41  30  65 CALM      30.29R

$$

VAZ025>031-211400-
SHENANDOAH VALLEY

CITY           SKY/WX    TMP DP  RH WIND       PRES   REMARKS
WINCHESTER*    MOSUNNY   41  25  52 SE7       30.28F
FRONT ROYAL*   CLOUDY    43  25  49 E5        30.27F
LURAY*         CLOUDY    39  36  87 CALM      30.26S
NEW MARKET*    CLOUDY    35  32  88 CALM      30.27R
STAUNTON*      CLOUDY    39  32  75 SW6       30.29R
WAYNESBORO*    CLOUDY    43  30  59 SE7       30.27S

$$

WVZ021-048>050-054>055-211400-
EASTERN WEST VIRGINIA PANHANDLE

CITY           SKY/WX    TMP DP  RH WIND       PRES   REMARKS
MARTINSBURG    CLOUDY    40  22  48 E3        30.30R
PETERSBURG*    CLOUDY    35  35  96 CALM      30.24S

$$

VAZ036>039-050-211400-
CENTRAL FOOTHILLS

CITY           SKY/WX    TMP DP  RH WIND       PRES   REMARKS
CHARLOTTESVILL CLOUDY    43  33  68 N3        30.30S
CULPEPER*      CLOUDY    36  32  85 CALM      30.33F
ORANGE*        PTSUNNY   37  32  81 CALM      30.32F
GORDONSVILLE*  PTSUNNY   39  35  87 CALM      30.31S
WARRENTON*     CLOUDY    36  29  78 NE5       30.32S

$$

VAZ055>057-211400-
NORTH AND CENTRAL PIEDMONT

CITY           SKY/WX    TMP DP  RH WIND       PRES   REMARKS
FREDERICKSBRG* CLOUDY    39  35  85 CALM      30.35R
STAFFORD*      CLOUDY    40  31  69 CALM      30.39R

$$

NCZ024-NYZ072-PAZ021-071-VAZ022-071-211400-
OTHER REGIONAL OBSERVATIONS

CITY           SKY/WX    TMP DP  RH WIND       PRES   REMARKS
NEW YORK CITY  MOSUNNY   36  19  50 NE3       30.41R
PHILADELPHIA   PTSUNNY   38  21  50 E7        30.39R
PITTSBURGH     CLOUDY    48  32  53 SE6       30.08S
ROANOKE        PTSUNNY   46  35  65 SE6       30.30R
RICHMOND       CLOUDY    42  36  79 NE3       30.33R
RALEIGH        PTSUNNY   48  37  65 E6        30.28R

$$

ANZ530>537-211400-
MARINE OBSERVATIONS

STATION/POSITION TIME  TEMP    WIND        PRES
                       AIR SEA DIR/SP/G
                 (UTC) (F)     (DEG/KT/KT) (MB)
THOMAS PT LIGHT  1300   39 42   50/  4/  4   N/A
BALT KEY BRIDGE  1242   39      80/  5/  7 1028.4S
COVE POINT       1242   38      80/  4/  6 1028.5R
LEWISETTA        1242   42 46  100/  9/ 10 1027.4S
SOLOMONS ISLAND  1242   41 43   60/  3/  5   N/A
PINEY POINT      1248           80/  2/  3   N/A

$$




USA.gov is the U.S. government's official web portal to all federal, state and local government web resources and services.